Regional Weather Roundup
Issued by NWS

Home | Current Version | Previous Version | Text Only | Print | Product List | Glossary Off
Versions: 1 2 3 4 5 6 7 8 9 10 11 12 13 14 15 16 17 18 19 20 21 22 23 24 25 26 27 28 29 30 31 32 33 34 35 36 37 38 39 40 41 42 43 44 45 46 47 48 49 50

000
ASUS43 KLSX 250607
RWRMO

WEATHER SUMMARY FOR MISSOURI
NATIONAL WEATHER SERVICE SPRINGFIELD MO
1200 AM CST SAT FEB 25 2017

NOTE: "FAIR" INDICATES FEW OR NO CLOUDS BELOW 12,000 FEET WITH NO
       SIGNIFICANT WEATHER AND/OR OBSTRUCTIONS TO VISIBILITY.
       CURRENT SKY AND/OR WEATHER CONDITIONS ARE NOT AVAILABLE FOR
       CHILLICOTHE AND FARMINGTON.

MOZ001>031-035>038-043-044-053-054-250700-
...NORTHERN AND WESTERN MISSOURI...

CITY           SKY/WX    TMP DP  RH WIND       PRES   REMARKS
KANSAS CTY INT PTCLDY    24  18  77 W9        30.06R WCI  14
6HR MIN TEMP:  24; 6HR MAX TEMP:  28; 6HR PCP: TRACE;

KANSAS C DTWN  MOCLDY    27  18  69 W10       30.07S WCI  17
6HR MIN TEMP:  26; 6HR MAX TEMP:  31; 6HR PCP: TRACE;

LEE`S SUMMIT   CLEAR     25  18  74 W13       30.06R WCI  14
6HR MIN TEMP:  25; 6HR MAX TEMP:  31; 6HR PCP: TRACE;

ST JOSEPH      CLOUDY    25  20  81 NW13      30.07R WCI  14
6HR MIN TEMP:  23; 6HR MAX TEMP:  28; 6HR PCP: TRACE;

CHILLICOTHE      N/A     26  18  71 W8G20     30.00R WCI  18
6HR MIN TEMP:  25; 6HR MAX TEMP:  30;

KIRKSVILLE     CLOUDY    25  21  85 W13       29.91R FOG     WCI  14
6HR MIN TEMP:  25; 6HR MAX TEMP:  32; 6HR PCP:  0.01;


$$
MOZ066>068-077>081-088>096-101>105-250700-
...SOUTHWEST MISSOURI...

CITY           SKY/WX    TMP DP  RH WIND       PRES   REMARKS
SPRINGFIELD    CLOUDY    30  19  63 NW13      30.02S WCI  20
6HR MIN TEMP:  30; 6HR MAX TEMP:  42;

JOPLIN         CLOUDY    30  19  63 NW18G25   30.12R WCI  18
6HR MIN TEMP:  29; 6HR MAX TEMP:  38;

BRANSON        CLOUDY    32  18  55 NW13G25   30.04R WCI  22

$$
MOZ032>034-039>042-045>050-055>058-069>072-250700-
...CENTRAL MISSOURI...

CITY           SKY/WX    TMP DP  RH WIND       PRES   REMARKS
COLUMBIA       CLOUDY    29  20  69 W14       29.95R WCI  18
6HR MIN TEMP:  29; 6HR MAX TEMP:  40;

JEFFERSON CITY CLOUDY    30  19  63 NW18      29.98R WCI  18
6HR MIN TEMP:  30; 6HR MAX TEMP:  43;

ROLLA          CLOUDY    29  18  63 NW20G28   29.93R WCI  16
6HR MIN TEMP:  29; 6HR MAX TEMP:  44; 6HR PCP: TRACE;

SEDALIA        CLOUDY    28  18  66 NW17G23   30.02R WCI  16
6HR MIN TEMP:  27; 6HR MAX TEMP:  35; 6HR PCP: TRACE;

WHITEMAN AFB   CLEAR     26  19  77 W15       30.03R WCI  13
WARRENSBURG    CLEAR     27  19  74 W13       30.05R WCI  16
OSAGE BEACH    CLOUDY    30  20  66 NW13G21   30.00R WCI  20

$$
MOZ051-052-059>065-250700-
...EAST CENTRAL MISSOURI...

CITY           SKY/WX    TMP DP  RH WIND       PRES   REMARKS
ST LOUIS INTL  CLOUDY    35  20  54 W24G33    29.86R WCI  23
6HR MIN TEMP:  35; 6HR MAX TEMP:  48;

SPIRIT OF STL  CLOUDY    34  21  59 W18G26    29.87R WCI  23
6HR MIN TEMP:  34; 6HR MAX TEMP:  46;

ST CHARLES     CLOUDY    33  22  63 W25G32    29.85R WCI  20
6HR MIN TEMP:  33; 6HR MAX TEMP:  47;


$$
MOZ072>076-082>087-097>100-106>115-250700-
...SOUTH CENTRAL AND SOUTHEAST MISSOURI...

CITY           SKY/WX    TMP DP  RH WIND       PRES   REMARKS
CAPE GIRARDEAU PTCLDY    41  27  57 W12       29.84R
6HR MIN TEMP:  41; 6HR MAX TEMP:  60;

FARMINGTON     CLOUDY    34  22  61 NW22G30   29.88R WCI  22
6HR MIN TEMP:  34; 6HR MAX TEMP:  52;

POPLAR BLUFF   PTCLDY    43  26  51 W18G29    29.88R
6HR MIN TEMP:  43; 6HR MAX TEMP:  60;

WEST PLAINS    CLOUDY    34  20  56 W17G26    29.96R WCI  23
6HR MIN TEMP:  34; 6HR MAX TEMP:  49;


$$



USA.gov is the U.S. government's official web portal to all federal, state and local government web resources and services.